Погода в Нежитине

Россия / Костромская область     57°28′45″N   43°17′52″E
темп.,
°C
ветер,
м/с
пор.,
м/с
влажн.,
%
обл.,
%
осадки,
мм/ч
давл.,
гПа
погр.,
м
17 сентября, пт
пт1700:00+6сз2568100 0.0 1017171
03:00+5сз2678100 0.0 1018235
06:00+4с378144 0.0 1018265
09:00+7ссз3555100 0.0 10181144
12:00+8ссз3547100 0.0 10181535
15:00+9ссз455098 0.1 10181534
18:00+7ссз487189 0.3 1019505
21:00+3ссз269123 0.3 1020142
18 сентября, сб
сб1800:00+5ссз3885100 0.0 1021568
03:00+5ссз3785100 0.0 1022620
06:00+6с3784100 0.1 1023630
09:00+6ссв3676100 0.1 1024618
12:00+9с345793 0.1 10241597
15:00+9с344794 0.2 10241698
18:00+7ссв376368 0.0 1025197
21:00+4ссв367031 0.0 1026109
19 сентября, вс
вс1900:00+5ссв256148 0.0 1027146
03:00+1ссв36845 0.0 1028131
06:000ссв248574 0.0 102874
09:00+5ссв2461100 0.0 1028512
12:00+9ссв234827 0.0 10281263
15:00+10ссв344783 0.0 10271342
18:00+6св3667100 0.0 1027124
21:00+3всв2778100 0.0 1028143
20 сентября, пн
пн2000:00+2всв41082100 0.0 1029341
03:00+1всв41083100 0.0 1029374
06:000всв41085100 0.0 1029373
09:00+3в51068100 0.0 1029609
12:00+7в5752100 0.0 1028978
15:00+8в575199 0.0 10271069
18:00+6в4958100 0.0 1027710
21:00+6в41162100 0.0 1026657
21 сентября, вт
вт2100:00+6в41262100 0.1 1026691
03:00+6в51264100 0.3 1025596
06:00+5в51377100 0.4 1025540
09:00+6вюв51370100 0.6 1024597
12:00+8вюв51264100 0.1 1024702
15:00+9вюв51263100 0.1 1024801
18:00+9вюв51359100 0.0 1023796
21:00+9вюв4125974 0.0 1023632